Cumberland, WI

4:45 AM CST on December 10, 2019 (GMT -0600)
Cumberland Municipal

Weather History for KUBE - October, 2019

Change the Weather History Date:

Friday, October 11, 2019

  Actual Average (KRPD) Record (KRPD)
Temperature  
Mean Temperature 46 °F -  
Max Temperature 59 °F 57 °F 79 °F (2015)
Min Temperature 32 °F 37 °F 24 °F (2000)
Degree Days  
Heating Degree Days 20    
Moisture  
Dew Point 34 °F    
Average Humidity 83    
Maximum Humidity 100    
Minimum Humidity 65    
Precipitation  
Precipitation 0.10 in - - ()
Sea Level Pressure  
Sea Level Pressure 29.70 in    
Wind  
Wind Speed 16 mph (SSW)    
Max Wind Speed 28 mph    
Max Gust Speed 33 mph    
Visibility 8 miles    
Events Rain , Thunderstorm    
Averages and records for this station are not official NWS values.
T = Trace of Precipitation, MM = Missing Value Source: NWS Daily Summary

Daily Weather History Graph

Daily Weather History Graph

Search for Another Location

Airport or City:

Astronomy

Oct. 11, 2019 Rise Set
Actual Time 7:18 AM CDT 6:29 PM CDT
Civil Twilight 6:48 AM CDT 6:59 PM CDT
Nautical Twilight 6:14 AM CDT 7:33 PM CDT
Astronomical Twilight 5:40 AM CDT 8:08 PM CDT
Moon 6:08 PM CDT (10/11) 4:48 AM CDT (10/11)
Length of Visible Light 12h 10m
Length of Day
11h 11m
Waxing Gibbous, 96% of the Moon is Illuminated
Oct 11
Waxing Gibbous
Oct 13
Full
Oct 21
Last Quarter
Oct 27
New
Nov 4
First Quarter

Hourly Weather History & Observations

Time (CDT) Temp. Windchill Dew Point Humidity Pressure Visibility Wind Dir Wind Speed Gust Speed Precip Events Conditions
12:15 AM 59.0 °F - 57.2 °F 94% 29.69 in 3.0 mi SE 13.8 mph 19.6 mph N/A Thunderstorm Overcast
12:35 AM 59.0 °F - 57.2 °F 94% 29.67 in 2.5 mi SE 13.8 mph 19.6 mph N/A   Overcast
12:55 AM 59.0 °F - 57.2 °F 94% 29.67 in 7.0 mi SE 12.7 mph - N/A   Overcast
1:15 AM 59.0 °F - 57.2 °F 94% 29.66 in 2.5 mi SE 13.8 mph 18.4 mph N/A   Light Drizzle
1:35 AM 59.0 °F - 59.0 °F 100% 29.65 in 3.0 mi SE 12.7 mph 21.9 mph N/A   Light Drizzle
1:55 AM 59.0 °F - 59.0 °F 100% 29.64 in 4.0 mi SSE 13.8 mph - N/A Thunderstorm Unknown
2:15 AM 59.0 °F - 59.0 °F 100% 29.63 in 3.0 mi SE 15.0 mph 23.0 mph 0.07 in Rain , Thunderstorm Heavy Thunderstorms and Rain
2:35 AM 59.0 °F - 59.0 °F 100% 29.62 in 10.0 mi SE 13.8 mph - N/A Rain , Thunderstorm Rain
2:55 AM 51.8 °F - 50.0 °F 94% 29.64 in 5.0 mi SW 17.3 mph 25.3 mph 0.02 in Rain , Thunderstorm Rain
3:15 AM 46.4 °F 39.5 °F 44.6 °F 93% 29.65 in 5.0 mi SW 17.3 mph 24.2 mph N/A Thunderstorm Unknown
3:35 AM 44.6 °F 38.4 °F 44.6 °F 100% 29.66 in 3.0 mi SW 12.7 mph - N/A   Heavy Drizzle
3:55 AM 42.8 °F 36.6 °F 42.8 °F 100% 29.66 in 5.0 mi SW 11.5 mph 17.3 mph 0.01 in   Drizzle
4:15 AM 42.8 °F 35.4 °F 41.0 °F 93% 29.67 in 5.0 mi WSW 15.0 mph 18.4 mph N/A Rain , Thunderstorm Rain
4:35 AM 41.0 °F 33.5 °F 41.0 °F 100% 29.67 in 7.0 mi SW 13.8 mph 20.7 mph 0.02 in Rain Light Rain
4:55 AM 41.0 °F 34.7 °F 39.2 °F 93% 29.66 in 10.0 mi WSW 10.4 mph 20.7 mph 0.02 in   Overcast
5:15 AM 41.0 °F 33.9 °F 39.2 °F 93% 29.67 in 10.0 mi SW 12.7 mph 17.3 mph N/A   Overcast
5:35 AM 39.2 °F 31.6 °F 37.4 °F 93% 29.69 in 7.0 mi SSW 12.7 mph 19.6 mph N/A Thunderstorm Overcast
5:55 AM 37.4 °F 28.2 °F 37.4 °F 100% 29.70 in 7.0 mi SW 16.1 mph 23.0 mph N/A   Overcast
6:15 AM 37.4 °F 28.5 °F 35.6 °F 93% 29.69 in 3.0 mi SW 15.0 mph 19.6 mph N/A   Overcast
6:35 AM 35.6 °F 25.9 °F 35.6 °F 100% 29.71 in 10.0 mi SW 16.1 mph 23.0 mph N/A   Overcast
6:55 AM 35.6 °F 25.5 °F 35.6 °F 100% 29.71 in 10.0 mi SW 17.3 mph 28.8 mph N/A   Overcast
7:15 AM 35.6 °F 27.1 °F 33.8 °F 93% 29.71 in 7.0 mi SW 12.7 mph 17.3 mph N/A   Overcast
7:35 AM 35.6 °F 25.9 °F 33.8 °F 93% 29.72 in 10.0 mi SW 16.1 mph 20.7 mph N/A   Overcast
7:55 AM 35.6 °F 25.5 °F 33.8 °F 93% 29.73 in 10.0 mi SW 17.3 mph 23.0 mph N/A   Overcast
8:35 AM 35.6 °F 27.1 °F 32.0 °F 87% 29.74 in 10.0 mi SW 12.7 mph - N/A   Overcast
8:55 AM 35.6 °F 25.5 °F 32.0 °F 87% 29.75 in 7.0 mi SW 17.3 mph 21.9 mph N/A   Overcast
9:15 AM 35.6 °F 25.9 °F 32.0 °F 87% 29.75 in 10.0 mi SW 16.1 mph 21.9 mph N/A   Overcast
9:35 AM 35.6 °F 25.9 °F 32.0 °F 87% 29.74 in 10.0 mi SW 16.1 mph 21.9 mph N/A   Light Drizzle
9:55 AM 33.8 °F 24.8 °F 32.0 °F 93% 29.76 in 7.0 mi SSW 12.7 mph 24.2 mph N/A Rain Light Rain
10:15 AM 33.8 °F 24.8 °F 32.0 °F 93% 29.75 in 5.0 mi SSW 12.7 mph 16.1 mph N/A Rain Light Rain
10:35 AM 33.8 °F 24.8 °F 32.0 °F 93% 29.76 in 10.0 mi SSW 12.7 mph - N/A   Overcast
10:55 AM 35.6 °F 26.2 °F 32.0 °F 87% 29.75 in 10.0 mi SSW 15.0 mph 21.9 mph N/A   Overcast
11:15 AM 35.6 °F 25.5 °F 30.2 °F 81% 29.74 in 10.0 mi SW 17.3 mph 24.2 mph N/A   Overcast
11:35 AM 35.6 °F 25.5 °F 32.0 °F 87% 29.74 in 7.0 mi SW 17.3 mph 25.3 mph N/A   Light Drizzle
11:55 AM 35.6 °F 23.0 °F 30.2 °F 81% 29.74 in 10.0 mi SW 27.6 mph 32.2 mph N/A   Overcast
12:15 PM 33.8 °F 22.5 °F 30.2 °F 87% 29.75 in 7.0 mi SW 19.6 mph 24.2 mph N/A   Overcast
12:35 PM 35.6 °F 24.5 °F 28.4 °F 75% 29.75 in 10.0 mi SW 20.7 mph 27.6 mph N/A   Overcast
12:55 PM 35.6 °F 25.9 °F 28.4 °F 75% 29.75 in 10.0 mi SW 16.1 mph 26.5 mph N/A   Overcast
1:15 PM 35.6 °F 25.5 °F 28.4 °F 75% 29.74 in 10.0 mi SSW 17.3 mph 23.0 mph N/A   Overcast
1:35 PM 35.6 °F 25.9 °F 28.4 °F 75% 29.74 in 10.0 mi SSW 16.1 mph 24.2 mph N/A   Overcast
1:55 PM 35.6 °F 24.0 °F 26.6 °F 70% 29.73 in 10.0 mi SW 23.0 mph 29.9 mph N/A   Overcast
2:15 PM 35.6 °F 24.2 °F 26.6 °F 70% 29.73 in 10.0 mi SW 21.9 mph 25.3 mph N/A   Overcast
2:35 PM 35.6 °F 24.8 °F 26.6 °F 70% 29.73 in 10.0 mi SW 19.6 mph 27.6 mph N/A   Overcast
2:55 PM 35.6 °F 24.8 °F 26.6 °F 70% 29.72 in 10.0 mi SW 19.6 mph 26.5 mph N/A   Overcast
3:15 PM 35.6 °F 25.2 °F 24.8 °F 65% 29.72 in 10.0 mi SW 18.4 mph 27.6 mph N/A   Overcast
3:35 PM 35.6 °F 25.9 °F 24.8 °F 65% 29.71 in 10.0 mi SW 16.1 mph 21.9 mph N/A   Overcast
3:55 PM 35.6 °F 24.5 °F 24.8 °F 65% 29.71 in 10.0 mi SSW 20.7 mph 24.2 mph N/A   Overcast
4:15 PM 35.6 °F 25.2 °F 24.8 °F 65% 29.71 in 10.0 mi SSW 18.4 mph 27.6 mph N/A   Overcast
4:35 PM 35.6 °F 26.6 °F 24.8 °F 65% 29.71 in 10.0 mi SSW 13.8 mph 25.3 mph N/A   Overcast
4:55 PM 35.6 °F 24.5 °F 24.8 °F 65% 29.70 in 10.0 mi SSW 20.7 mph 27.6 mph N/A   Overcast
5:15 PM 35.6 °F 24.0 °F 24.8 °F 65% 29.70 in 10.0 mi SSW 23.0 mph 28.8 mph N/A   Overcast
5:35 PM 35.6 °F 24.8 °F 24.8 °F 65% 29.70 in 10.0 mi SW 19.6 mph 29.9 mph N/A   Overcast
5:55 PM 35.6 °F 26.2 °F 26.6 °F 70% 29.70 in 10.0 mi SSW 15.0 mph 26.5 mph N/A   Overcast
6:15 PM 35.6 °F 25.9 °F 26.6 °F 70% 29.71 in 10.0 mi SSW 16.1 mph 24.2 mph N/A   Overcast
6:35 PM 35.6 °F 24.8 °F 26.6 °F 70% 29.70 in 10.0 mi SW 19.6 mph 27.6 mph N/A   Overcast
6:55 PM 35.6 °F 26.6 °F 24.8 °F 65% 29.70 in 10.0 mi SW 13.8 mph 23.0 mph N/A   Overcast
7:15 PM 35.6 °F 25.9 °F 24.8 °F 65% 29.70 in 10.0 mi SSW 16.1 mph 25.3 mph N/A   Overcast
7:35 PM 33.8 °F 21.0 °F 26.6 °F 75% 29.70 in 10.0 mi SW 25.3 mph 33.4 mph N/A   Overcast
7:55 PM 33.8 °F 22.2 °F 26.6 °F 75% 29.71 in 10.0 mi WSW 20.7 mph 26.5 mph N/A   Overcast
8:15 PM 32.0 °F 19.5 °F 26.6 °F 80% 29.71 in 10.0 mi WSW 21.9 mph 27.6 mph N/A   Overcast
8:35 PM 32.0 °F 20.8 °F 26.6 °F 80% 29.71 in 10.0 mi SW 17.3 mph 27.6 mph N/A   Overcast
8:55 PM 32.0 °F 21.2 °F 26.6 °F 80% 29.71 in 10.0 mi SW 16.1 mph 20.7 mph N/A   Overcast
9:15 PM 32.0 °F 19.8 °F 26.6 °F 80% 29.71 in 10.0 mi SW 20.7 mph 27.6 mph N/A   Overcast
9:35 PM 32.0 °F 20.1 °F 26.6 °F 80% 29.71 in 10.0 mi SW 19.6 mph 27.6 mph N/A   Overcast
9:55 PM 32.0 °F 21.2 °F 26.6 °F 80% 29.71 in 10.0 mi SSW 16.1 mph 25.3 mph N/A   Overcast
10:15 PM 32.0 °F 20.5 °F 26.6 °F 80% 29.69 in 10.0 mi SSW 18.4 mph 23.0 mph N/A   Overcast
10:35 PM 32.0 °F 21.6 °F 26.6 °F 80% 29.69 in 10.0 mi SSW 15.0 mph 26.5 mph N/A   Overcast
10:55 PM 32.0 °F 20.1 °F 26.6 °F 80% 29.69 in 10.0 mi SW 19.6 mph 24.2 mph N/A   Overcast
11:15 PM 32.0 °F 20.5 °F 26.6 °F 80% 29.68 in 10.0 mi SSW 18.4 mph 27.6 mph N/A   Overcast
11:35 PM 32.0 °F 20.5 °F 26.6 °F 80% 29.67 in 10.0 mi SSW 18.4 mph 25.3 mph N/A   Overcast
11:55 PM 32.0 °F 20.8 °F 26.6 °F 80% 29.67 in 10.0 mi SSW 17.3 mph 24.2 mph N/A   Overcast